Miscellaneous Local Product
Issued by NWS Hastings, NE

Home | Current Version | Previous Version | Graphics & Text | Print | Product List | Glossary On
Versions: 1 2 3 4 5 6 7 8 9 10 11 12 13 14 15 16 17 18 19 20 21 22 23 24 25 26 27 28 29 30 31 32 33 34 35 36 37 38 39 40 41 42 43 44 45 46 47 48 49 50
000
AXUS43 KGID 051702
MISGRI

GID CWA HOURLY WEATHER ROUNDUP
NATIONAL WEATHER SERVICE HASTINGS NE
1200 PM CDT SUN JUL 05 2015

NOTE: "FAIR" INDICATES FEW OR NO CLOUDS BELOW 12,000 FEET WITH NO
SIGNIFICANT WEATHER AND/OR OBSTRUCTIONS TO VISIBILITY.

...SOUTH CENTRAL NEBRASKA...

CITY           SKY/WX    TMP DP  RH WIND       PRES   REMARKS
GRAND ISLAND   MOSUNNY   83  70  64 SE14      29.88F
HASTINGS       SUNNY     84  71  65 SE12      29.87F
KEARNEY        SUNNY     84  70  61 SE15      29.86S
ORD            SUNNY     83  68  60 S14       29.83F
YORK           CLOUDY    75  72  88 SE13      29.90F
AURORA         PTSUNNY   80  73  78 SE15      29.88F
LEXINGTON      MOSUNNY   84  69  58 SE13      29.85S
HOLDREGE       SUNNY     84  66  55 SE13      29.86S
HEBRON         SUNNY     84  70  61 S13G18    29.88S

...NEBRASKA PANHANDLE...

CITY           SKY/WX    TMP DP  RH WIND       PRES   REMARKS
CHADRON        MOSUNNY   90  61  37 W10       29.79S HX  90
ALLIANCE       SUNNY     86  64  47 SW3       29.85S
SCOTTSBLUFF    SUNNY     86  61  42 S6        29.87S
SIDNEY         SUNNY     90  52  27 VRB5      29.91S

...WESTERN AND NORTH CENTRAL NEBRASKA...

CITY           SKY/WX    TMP DP  RH WIND       PRES   REMARKS
VALENTINE      SUNNY     88  67  49 S14       29.78F HX  91
AINSWORTH      SUNNY     86  68  55 S15       29.81F
ONEILL         SUNNY     82  70  68 S18G26    29.83F
BROKEN BOW     SUNNY     84  69  60 SE15G26   29.84F
IMPERIAL       SUNNY     90  63  40 E7        29.84S HX  91
NORTH PLATTE   MOSUNNY   87  66  49 S9        29.83S
MCCOOK         SUNNY     92  63  38 SE13      29.82F HX  93

...EASTERN NEBRASKA...

CITY           SKY/WX    TMP DP  RH WIND       PRES   REMARKS
NORFOLK        PTSUNNY   83  70  64 S18G26    29.85F
SO SIOUX CITY  PTSUNNY   77  68  73 SE17      29.83F
TEKAMAH        CLOUDY    75  69  81 SE17      29.87F
COLUMBUS       PTSUNNY   79  66  65 SE14G20   29.88S
ALBION         PTSUNNY   77  67  73 S16       29.88R
OMAHA EPPLEY   CLOUDY    75  67  76 S3        29.92F
OFFUTT AFB     CLOUDY    76  69  79 SE5       29.92F
MILLARD        CLOUDY    74  68  80 SE10      29.91F
LINCOLN        CLOUDY    76  68  76 E13       29.91F HAZE
NEBRASKA CITY  CLOUDY    79  67  66 SE12      29.94S
BEATRICE       PTSUNNY   84  73  69 SE13      29.90S HX  90
FALLS CITY     CLOUDY    84  72  67 SE15      29.93F

...NORTHERN KANSAS...

CITY           SKY/WX    TMP DP  RH WIND       PRES   REMARKS
GOODLAND       SUNNY     91  59  33 S12       29.87F HX  90
HILL CITY      SUNNY     95  64  35 S15G24    29.83F HX  97
NORTON         SUNNY     93  57  29 SE12G17   29.82F HX  92
PHILLIPSBURG   SUNNY     97  63  32 S13G20    29.82F HX  98
SMITH CENTER   SUNNY     91  64  40 S13       29.86S HX  93
HAYS           SUNNY     93  66  40 S23G32    29.85S HX  96
RUSSELL        LGT RAIN  91  67  44 S24G30    29.85S HX  94
CONCORDIA      SUNNY     89  70  53 S18G26    29.88S HX  94
SALINA         SUNNY     93  69  45 S14G24    29.89S HX  98
TOPEKA         PTSUNNY   85  73  67 S15G22    29.95S HX  91



USA.gov is the U.S. government's official web portal to all federal, state and local government web resources and services.